Time,TemperatureF,DewpointF,PressureIn,WindDirection,WindDirectionDegrees,WindSpeedMPH,WindSpeedGustMPH,Humidity,HourlyPrecipIn,Conditions,Clouds,dailyrainin,SolarRadiationWatts/m^2,SoftwareType,DateUTC
2013-02-12 00:01:00,32.0,31.0,-100.00,SW,224,2.0,11.0,96,0.00,,,0.03,0.000000,,2013-02-12 05:01:00,
2013-02-12 00:11:00,32.0,31.0,-100.00,SW,224,2.0,11.0,96,0.00,,,0.03,0.000000,,2013-02-12 05:11:00,
2013-02-12 00:21:00,32.0,31.0,-100.00,SW,224,2.0,11.0,96,0.00,,,0.03,0.000000,,2013-02-12 05:21:00,
2013-02-12 00:52:00,32.0,31.0,-100.00,South,185,3.0,7.0,97,0.00,,,0.03,0.000000,,2013-02-12 05:52:00,
2013-02-12 01:02:00,32.0,31.0,-100.00,South,185,3.0,7.0,97,0.00,,,0.03,0.000000,,2013-02-12 06:02:00,
2013-02-12 01:12:00,32.0,31.0,-100.00,South,185,3.0,7.0,97,0.00,,,0.03,0.000000,,2013-02-12 06:12:00,
2013-02-12 01:22:00,32.0,31.0,-100.00,South,185,3.0,7.0,97,0.00,,,0.03,0.000000,,2013-02-12 06:22:00,
2013-02-12 01:52:00,32.0,28.0,-100.00,West,277,4.0,9.0,84,0.00,,,0.03,0.000000,,2013-02-12 06:52:00,
2013-02-12 02:02:00,32.0,28.0,-100.00,West,277,4.0,9.0,84,0.00,,,0.03,0.000000,,2013-02-12 07:02:00,
2013-02-12 02:12:00,32.0,28.0,-100.00,West,277,4.0,9.0,84,0.00,,,0.03,0.000000,,2013-02-12 07:12:00,
2013-02-12 02:21:00,32.0,28.0,-100.00,West,277,4.0,9.0,84,0.00,,,0.03,0.000000,,2013-02-12 07:21:00,
2013-02-12 02:52:00,32.0,26.0,-100.00,WSW,249,3.0,12.0,79,0.00,,,0.03,0.000000,,2013-02-12 07:52:00,
2013-02-12 03:01:00,32.0,26.0,-100.00,WSW,249,3.0,12.0,79,0.00,,,0.03,0.000000,,2013-02-12 08:01:00,
2013-02-12 03:11:00,32.0,26.0,-100.00,WSW,249,3.0,12.0,79,0.00,,,0.03,0.000000,,2013-02-12 08:11:00,
2013-02-12 03:22:00,32.0,26.0,-100.00,WSW,249,3.0,12.0,79,0.00,,,0.03,0.000000,,2013-02-12 08:22:00,
2013-02-12 03:52:00,31.0,26.0,-100.00,West,272,3.0,9.0,82,0.00,,,0.03,0.000000,,2013-02-12 08:52:00,
2013-02-12 04:02:00,31.0,26.0,-100.00,West,272,3.0,9.0,82,0.00,,,0.03,0.000000,,2013-02-12 09:02:00,
2013-02-12 04:11:00,31.0,26.0,-100.00,West,272,3.0,9.0,82,0.00,,,0.03,0.000000,,2013-02-12 09:11:00,
2013-02-12 04:22:00,31.0,26.0,-100.00,West,272,3.0,9.0,82,0.00,,,0.03,0.000000,,2013-02-12 09:22:00,
2013-02-12 04:52:00,31.0,25.0,-100.00,West,273,3.0,8.0,78,0.00,,,0.03,0.000000,,2013-02-12 09:52:00,
2013-02-12 05:02:00,31.0,25.0,-100.00,West,273,3.0,8.0,78,0.00,,,0.03,0.000000,,2013-02-12 10:02:00,
2013-02-12 05:11:00,31.0,25.0,-100.00,West,273,3.0,8.0,78,0.00,,,0.03,0.000000,,2013-02-12 10:11:00,
2013-02-12 05:21:00,31.0,25.0,-100.00,West,273,3.0,8.0,78,0.00,,,0.03,0.000000,,2013-02-12 10:21:00,
2013-02-12 05:52:00,31.0,25.0,-100.00,West,263,2.0,10.0,77,0.00,,,0.03,0.000000,,2013-02-12 10:52:00,
2013-02-12 06:02:00,31.0,25.0,-100.00,West,263,2.0,10.0,77,0.00,,,0.03,0.000000,,2013-02-12 11:02:00,
2013-02-12 06:11:00,31.0,25.0,-100.00,West,263,2.0,10.0,77,0.00,,,0.03,0.000000,,2013-02-12 11:11:00,
2013-02-12 06:22:00,31.0,25.0,-100.00,West,263,2.0,10.0,77,0.00,,,0.03,0.000000,,2013-02-12 11:22:00,
2013-02-12 06:53:00,31.0,26.0,-100.00,WSW,257,3.0,8.0,82,0.00,,,0.03,0.000000,,2013-02-12 11:53:00,
2013-02-12 07:02:00,31.0,26.0,-100.00,WSW,257,3.0,8.0,82,0.00,,,0.03,0.000000,,2013-02-12 12:02:00,
2013-02-12 07:11:00,31.0,26.0,-100.00,WSW,257,3.0,8.0,82,0.00,,,0.03,0.000000,,2013-02-12 12:11:00,
2013-02-12 07:22:00,31.0,26.0,-100.00,WSW,257,3.0,8.0,82,0.00,,,0.03,0.000000,,2013-02-12 12:22:00,
2013-02-12 07:53:00,31.0,26.0,-100.00,West,261,3.0,7.0,83,0.00,,,0.03,1.000000,,2013-02-12 12:53:00,
2013-02-12 08:02:00,31.0,26.0,-100.00,West,261,3.0,7.0,83,0.00,,,0.03,1.000000,,2013-02-12 13:02:00,
2013-02-12 08:11:00,31.0,26.0,-100.00,West,261,3.0,7.0,83,0.00,,,0.03,1.000000,,2013-02-12 13:11:00,
2013-02-12 08:22:00,31.0,26.0,-100.00,West,261,3.0,7.0,83,0.00,,,0.03,1.000000,,2013-02-12 13:22:00,
2013-02-12 08:52:00,32.0,28.0,-100.00,West,269,4.0,6.0,84,0.00,,,0.03,16.000000,,2013-02-12 13:52:00,
2013-02-12 09:01:00,32.0,28.0,-100.00,West,269,4.0,6.0,84,0.00,,,0.03,16.000000,,2013-02-12 14:01:00,
2013-02-12 09:12:00,32.0,28.0,-100.00,West,269,4.0,6.0,84,0.00,,,0.03,16.000000,,2013-02-12 14:12:00,
2013-02-12 09:22:00,32.0,28.0,-100.00,West,269,4.0,6.0,84,0.00,,,0.03,16.000000,,2013-02-12 14:22:00,
2013-02-12 09:52:00,33.0,29.0,-100.00,WNW,284,6.0,11.0,84,0.00,,,0.03,38.000000,,2013-02-12 14:52:00,
2013-02-12 10:02:00,33.0,29.0,-100.00,WNW,284,6.0,11.0,84,0.00,,,0.03,38.000000,,2013-02-12 15:02:00,
2013-02-12 10:11:00,33.0,29.0,-100.00,WNW,284,6.0,11.0,84,0.00,,,0.03,38.000000,,2013-02-12 15:11:00,
2013-02-12 10:21:00,33.0,29.0,-100.00,WNW,284,6.0,11.0,84,0.00,,,0.03,38.000000,,2013-02-12 15:21:00,
2013-02-12 10:52:00,34.0,29.0,-100.00,WNW,292,5.0,14.0,81,0.00,,,0.03,70.000000,,2013-02-12 15:52:00,
2013-02-12 11:02:00,34.0,29.0,-100.00,WNW,292,5.0,14.0,81,0.00,,,0.03,70.000000,,2013-02-12 16:02:00,
2013-02-12 11:11:00,34.0,29.0,-100.00,WNW,292,5.0,14.0,81,0.00,,,0.03,70.000000,,2013-02-12 16:11:00,
2013-02-12 11:22:00,34.0,29.0,-100.00,WNW,292,5.0,14.0,81,0.00,,,0.03,70.000000,,2013-02-12 16:22:00,
2013-02-12 11:52:00,35.0,29.0,-100.00,WNW,287,10.0,19.0,77,0.01,,,0.04,147.000000,,2013-02-12 16:52:00,
2013-02-12 12:01:00,35.0,29.0,-100.00,WNW,287,10.0,19.0,77,0.01,,,0.04,147.000000,,2013-02-12 17:01:00,
2013-02-12 12:12:00,35.0,29.0,-100.00,WNW,287,10.0,19.0,77,0.01,,,0.04,147.000000,,2013-02-12 17:12:00,
2013-02-12 12:21:00,35.0,29.0,-100.00,WNW,287,10.0,19.0,77,0.01,,,0.04,147.000000,,2013-02-12 17:21:00,
2013-02-12 12:52:00,35.0,28.0,-100.00,WNW,282,10.0,23.0,76,0.17,,,0.21,161.000000,,2013-02-12 17:52:00,
2013-02-12 13:02:00,35.0,28.0,-100.00,WNW,282,10.0,23.0,76,0.17,,,0.21,161.000000,,2013-02-12 18:02:00,
2013-02-12 13:12:00,35.0,28.0,-100.00,WNW,282,10.0,23.0,76,0.17,,,0.21,161.000000,,2013-02-12 18:12:00,
2013-02-12 13:23:00,35.0,28.0,-100.00,WNW,282,10.0,23.0,76,0.17,,,0.21,161.000000,,2013-02-12 18:23:00,
2013-02-12 13:52:00,33.0,28.0,-100.00,WNW,286,11.0,28.0,80,0.02,,,0.23,81.000000,,2013-02-12 18:52:00,
2013-02-12 14:02:00,33.0,28.0,-100.00,WNW,286,11.0,28.0,80,0.02,,,0.23,81.000000,,2013-02-12 19:02:00,
2013-02-12 14:11:00,33.0,28.0,-100.00,WNW,286,11.0,28.0,80,0.02,,,0.23,81.000000,,2013-02-12 19:11:00,
2013-02-12 14:21:00,33.0,28.0,-100.00,WNW,286,11.0,28.0,80,0.02,,,0.23,81.000000,,2013-02-12 19:21:00,
2013-02-12 14:52:00,33.0,28.0,-100.00,WNW,283,9.0,27.0,82,0.00,,,-99.99,100.000000,,2013-02-12 19:52:00,
2013-02-12 15:01:00,33.0,28.0,-100.00,WNW,283,9.0,27.0,82,0.00,,,-99.99,100.000000,,2013-02-12 20:01:00,
2013-02-12 15:11:00,33.0,28.0,-100.00,WNW,283,9.0,27.0,82,0.00,,,-99.99,100.000000,,2013-02-12 20:11:00,
2013-02-12 15:21:00,33.0,28.0,-100.00,WNW,283,9.0,27.0,82,0.00,,,-99.99,100.000000,,2013-02-12 20:21:00,
2013-02-12 15:52:00,32.0,27.0,-100.00,WNW,285,11.0,25.0,82,0.00,,,0.23,48.000000,,2013-02-12 20:52:00,
2013-02-12 16:02:00,32.0,27.0,-100.00,WNW,285,11.0,25.0,82,0.00,,,0.23,48.000000,,2013-02-12 21:02:00,
2013-02-12 16:11:00,32.0,27.0,-100.00,WNW,285,11.0,25.0,82,0.00,,,0.23,48.000000,,2013-02-12 21:11:00,
2013-02-12 16:21:00,32.0,27.0,-100.00,WNW,285,11.0,25.0,82,0.00,,,0.23,48.000000,,2013-02-12 21:21:00,
2013-02-12 16:52:00,31.0,28.0,-100.00,West,280,7.0,22.0,89,0.00,,,0.23,9.000000,,2013-02-12 21:52:00,
2013-02-12 17:01:00,31.0,28.0,-100.00,West,280,7.0,22.0,89,0.00,,,0.23,9.000000,,2013-02-12 22:01:00,
2013-02-12 17:12:00,31.0,28.0,-100.00,West,280,7.0,22.0,89,0.00,,,0.23,9.000000,,2013-02-12 22:12:00,
2013-02-12 17:21:00,31.0,28.0,-100.00,West,280,7.0,22.0,89,0.00,,,0.23,9.000000,,2013-02-12 22:21:00,
2013-02-12 17:52:00,31.0,28.0,-100.00,WNW,283,9.0,16.0,87,0.00,,,0.22,2.000000,,2013-02-12 22:52:00,
2013-02-12 18:02:00,31.0,28.0,-100.00,WNW,283,9.0,16.0,87,0.00,,,0.22,2.000000,,2013-02-12 23:02:00,
2013-02-12 18:11:00,31.0,28.0,-100.00,WNW,283,9.0,16.0,87,0.00,,,0.22,2.000000,,2013-02-12 23:11:00,
2013-02-12 18:21:00,31.0,28.0,-100.00,WNW,283,9.0,16.0,87,0.00,,,0.22,2.000000,,2013-02-12 23:21:00,
2013-02-12 18:52:00,31.0,28.0,-100.00,WNW,286,6.0,20.0,88,0.00,,,0.21,0.000000,,2013-02-12 23:52:00,
2013-02-12 19:02:00,31.0,28.0,-100.00,WNW,286,6.0,20.0,88,0.00,,,0.21,0.000000,,2013-02-13 00:02:00,
2013-02-12 19:11:00,31.0,28.0,-100.00,WNW,286,6.0,20.0,88,0.00,,,0.21,0.000000,,2013-02-13 00:11:00,
2013-02-12 19:22:00,31.0,28.0,-100.00,WNW,286,6.0,20.0,88,0.00,,,0.21,0.000000,,2013-02-13 00:22:00,
2013-02-12 19:52:00,31.0,27.0,-100.00,WNW,294,3.0,13.0,85,0.00,,,0.20,0.000000,,2013-02-13 00:52:00,
2013-02-12 20:01:00,31.0,27.0,-100.00,WNW,294,3.0,13.0,85,0.00,,,0.20,0.000000,,2013-02-13 01:01:00,
2013-02-12 20:11:00,31.0,27.0,-100.00,WNW,294,3.0,13.0,85,0.00,,,0.20,0.000000,,2013-02-13 01:11:00,
2013-02-12 20:21:00,31.0,27.0,-100.00,WNW,294,3.0,13.0,85,0.00,,,0.20,0.000000,,2013-02-13 01:21:00,
2013-02-12 21:11:00,30.0,26.0,-100.00,WNW,289,6.0,11.0,84,0.00,,,0.20,0.000000,,2013-02-13 02:11:00,
2013-02-12 21:22:00,30.0,26.0,-100.00,WNW,289,6.0,11.0,84,0.00,,,0.20,0.000000,,2013-02-13 02:22:00,
2013-02-12 21:52:00,30.0,25.0,-100.00,WNW,286,8.0,16.0,81,0.00,,,0.20,0.000000,,2013-02-13 02:52:00,
2013-02-12 22:02:00,30.0,25.0,-100.00,WNW,286,8.0,16.0,81,0.00,,,0.20,0.000000,,2013-02-13 03:02:00,
2013-02-12 22:12:00,30.0,25.0,-100.00,WNW,286,8.0,16.0,81,0.00,,,0.20,0.000000,,2013-02-13 03:12:00,
2013-02-12 22:21:00,30.0,25.0,-100.00,WNW,286,8.0,16.0,81,0.00,,,0.20,0.000000,,2013-02-13 03:21:00,
2013-02-12 22:52:00,30.0,25.0,-100.00,West,280,6.0,15.0,80,0.00,,,0.20,0.000000,,2013-02-13 03:52:00,
2013-02-12 23:01:00,30.0,25.0,-100.00,West,280,6.0,15.0,80,0.00,,,0.20,0.000000,,2013-02-13 04:01:00,
2013-02-12 23:11:00,30.0,25.0,-100.00,West,280,6.0,15.0,80,0.00,,,0.20,0.000000,,2013-02-13 04:11:00,
2013-02-12 23:21:00,30.0,25.0,-100.00,West,280,6.0,15.0,80,0.00,,,0.20,0.000000,,2013-02-13 04:21:00,
2013-02-12 23:52:00,29.0,24.0,-100.00,West,275,4.0,13.0,81,0.00,,,0.20,0.000000,,2013-02-13 04:52:00,